Hourly Data Report for October 11, 2015

All times are specified in Local Standard Time (LST). Add 1 hour to adjust for Daylight Saving Time where and when it is observed.

KUGAARUK CLIMATE
NUNAVUT

68°32'15.060" N
89°47'47.020" W
15.80 m
2303094
71407
NBB

Download Data

Hourly Data (October 2015)
Hourly Data Report for October 11, 2015
Temp Definition
°C
Dew Point Temp Definition
°C
Rel Hum Definition
%
Wind Dir Definition
10's deg

Wind Spd Definition
km/h
Visibility Definition
km
Stn Press Definition
kPa
Hmdx Definition


Wind Chill Definition


Weather Definition


TIME
00:00 -17.8 -19.6 86   0   100.68     LegendNANA
01:00 -17.8 -19.7 85   0   100.69     LegendNANA
02:00 -16.9 -18.7 86   0   100.68     LegendNANA
03:00 -16.8 -18.6 86   0   100.67     LegendNANA
04:00 -16.5 -18.3 86   0   100.67     LegendNANA
05:00 -16.4 -18.1 86   0   100.66     LegendNANA
06:00 -17.1 -18.9 86   0   100.64     LegendNANA
07:00 -16.7 -18.4 86   0   100.63     LegendNANA
08:00 -14.8 -16.3 88   0   100.63     LegendNANA
09:00 -11.4 -12.6 91   0   100.61     LegendNANA
10:00 -11.6 -12.9 90   0   100.60     LegendNANA
11:00 -11.5 -12.8 90 23 3   100.62   -13 LegendNANA
12:00 -11.6 -13.0 90 24 11   100.61   -18 LegendNANA
13:00 -11.3 -12.6 90 24 12   100.60   -17 LegendNANA
14:00 -11.1 -12.3 90 24 10   100.59   -17 LegendNANA
15:00 -10.8 -11.9 91 23 8   100.59   -15 LegendNANA
16:00 -10.4 -11.6 91 27 4   100.58   -13 LegendNANA
17:00 -10.1 -11.3 91 24 4   100.56   -12 LegendNANA
18:00 -10.1 -11.2 91 22 6   100.56   -14 LegendNANA
19:00 -10.0 -11.1 92 21 7   100.54   -14 LegendNANA
20:00 -10.1 -11.3 91 23 5   100.52   -13 LegendNANA
21:00 -10.1 -11.3 91 21 6   100.51   -14 LegendNANA
22:00 -11.9 -13.3 90 25 4   100.49   -14 LegendNANA
23:00 -11.8 -13.1 90 25 6   100.45   -16 LegendNANA

Notes on Data Quality.

Legend

  • E = Estimated
  • M = Missing
  • NA = Not Available
  • ‡ = Partner data that is not subject to review by the National Climate Archives
Date modified: